Погода Ровно

Погода Ровно : погода сейчас, прогноз погоды и архив. Всё, что Вы хотите узнать о погоде Ровно!

Поиск расширенной информации на нашем сайте:

Другие новости

Новости СМИ2

Главная страница сайта

Новости сайта

03.07.2017

Напоминаем, что на нашем специализированном сайте Метеоцентр.Азия вы можете получить высокодетализированные автоматические прогнозы погоды по пунктам России, СНГ и мира в авиационном формате (включающие направление и скорость ветра, видимость, явления погоды, количество и форму облачности, нижнюю и верхнюю границу облачности).


Погода Ровно - сегодня

Время (UTC), дата Ветер
(°,м/с) 
Видим.   Явления Облачность Т
(°С)
Тd
(°С)
f(%) Тe
(°С)
Pmin
(гПа)
dP
(гПа)
Po
(мм)
O2
(г/м3)
Тmin Tmax R s Состояние
почвы
12 20.08.17 280 (З) 20000 м    9/5 1000 м средняя 
[Sc|Ac und]
+28.2 +16.6 49 +40  1013.8  -0.9  741  267           
15 20.08.17 340 (С) 20000 м    4/3 600 м средняя 
[Sc|Ac trans]
+26.8 +18.6 61 +43  1012.7  -1.1  740  267           
18 20.08.17 310 (СЗ) 10 км    5/3 600 м средняя 
[Sc|Ac trans]
+20.8 +17.2 80 +34  1014.9  1.6  741  274    +31.9       
21 20.08.17 290 (З) 10 км    5/3 600 м 
[]
+17.4 +15.9 91 +29  1015.8  0.5  742  277           
00 21.08.17 280 (З) 4000 м  дымка  5/5 600 м 
[Sc]
+15.8 +15.5 98 +26  1015.7  -0.2  741  279           
03 21.08.17 290 (З) 1000 м  дымка  10/10 570 м 
[Sc]
+14.2 +13.8 97 +20  1016.2  0.3  742  281           
06 21.08.17 300 (СЗ) 4000 м  слаб. ливневой дождь  10/10 420 м кучево-дожд. 
[Cb calv]
+13.2 +12.8 97 +18  1016.8  0.5  742  283  +13.2       
09 21.08.17 310 (СЗ) 10 км  слаб. ливневой дождь  10/10 360 м кучево-дожд. 
[Cb calv]
+12.9 +12.5 97 +17  1018  1.1  743  283           
12 21.08.17 320 (СЗ) 4000 м  слаб. ливневой дождь  10/10 400 м кучево-дожд. 
[Cb calv]
+13.1 +12.7 97 +18  1018  743  283      17     
15 21.08.17 тихо ()   10 км  слаб. ливневой дождь  10/8 420 м кучево-дожд., средняя 
[Cb calv|Ac und]
+13.1 +12.6 97 +18  1018.1  0.1  743  283           
18 21.08.17 300 (СЗ) 10 км  {ливн. осадки}  8/4 300 м кучево-дожд., средняя 
[Cb calv|Ac trans]
+12 +11.4 96 +15  1017.4  -0.8  742  284    +13.6  27     
21 21.08.17 290 (З) 10 км    9/3 600 м средняя, верхняя 
[Sc|Ac trans|Ci fib]
+11.6 +11.2 97 +16  1017.5  0.1  742  285           
00 22.08.17 280 (З) 10 км    9/3 600 м средняя 
[Sc|Ac trans]
+10.5 +10.1 97 +13  1016.4  -1.2  742  286           
03 22.08.17 300 (СЗ) 10 км    10/3 600 м средняя 
[Sc|Ac und]
+10.8 +10.4 97 +12  1016.2  -0.2  741  285           
06 22.08.17 290 (З) 10 км    9/0 средняя, верхняя 
[Ac trans|Ci fib]
+11.8 +11.4 97 +15  1016.4  0.3  742  284  +10.3         
09 22.08.17 300 (СЗ) 20000 м    9/5 600 м средняя, верхняя 
[Cu hum|Ac trans|Ci fib]
+16.1 +12.1 77 +20  1015.3  -0.6  741  280           
12 22.08.17 290 (З) 20000 м    8/8 840 м кучево-дожд. 
[Cb calv]
+19.1 +11.7 62 +23  1014  -1  740  277           
15 22.08.17 320 (СЗ) 20000 м    6/4 600 м средняя 
[Cu med, cong|Ac trans]
+17.9 +10.3 61 +20  1013.2  -0.9  740  278           
18 22.08.17 280 (З) 10 км    9/3 600 м средняя 
[Sc|Ac trans]
+13.8 +11 83 +17  1013.2  -0.4  739  282    +19.3       
21 22.08.17 280 (З) 10 км    6/0 средняя 
[Ac trans]
+12.5 +11.2 92 +15  1012.4  -0.9  739  282           
00 23.08.17 280 (З) 10 км    8/0 средняя 
[Ac trans]
+12.2 +11.4 95 +14  1011.8  -0.6  738  283           
03 23.08.17 290 (З) 10 км    10/10 210 м 
[St]
+12 +11.4 96 +14  1011.6  -0.2  738  283           
06 23.08.17 290 (З) 20000 м  {ливн. осадки}  10/10 240 м кучево-дожд. 
[Cb calv]
+13 +11.7 92 +16  1011.8  0.3  738  282  +11    0.0     
09 23.08.17 290 (З) 20000 м  в посл. час ливневой дождь  10/8 480 м кучево-дожд., средняя 
[Cb calv|Ac und]
+13.6 +11.9 89 +17  1012.6  0.8  739  281           
12 23.08.17 300 (СЗ) 10 км  слаб. ливневой дождь  9/8 450 м кучево-дожд., средняя 
[Cb calv|Ac und]
+13.7 +12.4 92 +18  1012.6  739  281         
Время (UTC), дата Ветер
(°,м/с) 
Видим.   Явления Облачность Т
(°С)
Тd
(°С)
f(%) Тe
(°С)
Pmin
(гПа)
dP
(гПа)
Po
(мм)
O2
(г/м3)
Тmin Tmax R s Состояние
почвы

Для получения пояснительной информации подведите курсор к названию столбца.

ПОГОДА Ровно - архив

Всё, что Вы хотите узнать о погоде Ровно - удобно и подробно!

Выберите нужную дату (начиная с 1 января 2015* года) и нажмите кнопку "Найти".
Будут отображены архивные сводки погоды по пункту Ровно, начиная с указанной даты.


Отображать данные в формате CSV (для использования в таблицах Excel)


Внимание! Наш архив погоды предназначен исключительно для личного некоммерческого использования в познавательных целях. Если Вам необходимы официальные справки о состоянии погоды (для производственных, юридических, коммерческих и т.п. целей), обращайтесь в органы Росгидромета.

*Примечание: данная дата относится к архиву по метеостанциям СССР (Россия, СНГ, Балтия).
Архив по метеостанциям Зарубежной Европы и Азии (кроме Китая) хранится 10 дней, по другим регионам земного шара (Китай, Африка, Америка, Австралия, Океания) - 1 день.

Ровно - район местоположения метеостанции


Название, широта, долгота, высота метеостанции:
Ровно 50.6°ш. 26.1°д. 231 м над ур. моря [Украина]

Дополнительная информация

В oтличие oт бoльшинства пoгoдных сайтoв мы публикуем пoдрoбную метеoинфoрмацию в детальнoм прoфессиoнальнoм фoрмате.

Характеристики температуры и влажнoсти вoздуха измеряются на высoте 2 м в тени вдали oт зданий и деревьев.
Скoрoсть ветра измеряется на высoте 10 м (на урoвне рoста челoвека скoрoсть ветра ниже в 1.5-2 раза). Если метеoстанция нахoдится в гoрoде или в лесу, тo скoрoсть ветра занижена на 2-4 м/с пo сравнению с oткрытым местoм. Скoрoсть ветра над акватoриями крупных рек и oзёр, а также на вершинах хoлмoв на 2-5 м/с выше, чем в oбычных услoвиях.
Атмoсфернoе давление в разных тoчках местнoсти мoжет значительнo oтличаться oт давления на метеoстанции, в зависимoсти oт услoвий рельефа (при пoдъёме на 10 м давление пoнижается примернo на 1 мм рт.ст.).